GW3809 Weather Reports


Display with metric or nautical units.
time (UTC)temp
F
wind
direction
speed
MPH
gust
MPH
rain 1hr
in
rain 24hr
in
rain mn
in
humidity
%
barometer
mb
20240228061215 72 133 8.0 14.0 0.00 0.00 0.00 89 1009.3
20240228060714 72 144 9.0 11.0 0.00 0.00 0.00 89 1009.1
20240228060213 72 181 4.0 10.0 0.00 0.00 0.00 89 1009.3
20240228055712 73 151 10.0 14.0 0.00 0.00 0.00 89 1009.3
20240228055211 73 148 6.0 11.0 0.00 0.00 0.00 89 1009.5
20240228054711 73 170 7.0 9.0 0.00 0.00 0.00 89 1009.3
20240228054209 73 159 10.0 13.0 0.00 0.00 0.00 89 1009.0
20240228053708 73 123 6.0 9.0 0.00 0.00 0.00 89 1009.0
20240228053207 73 135 6.0 8.0 0.00 0.00 0.00 89 1009.2
20240228052706 73 153 4.0 10.0 0.00 0.00 0.00 88 1009.1
20240228052205 73 203 3.0 11.0 0.00 0.00 0.00 88 1009.2
20240228051705 73 136 6.0 11.0 0.00 0.00 0.00 88 1009.2
20240228051204 73 131 10.0 13.0 0.00 0.00 0.00 88 1009.2
20240228050704 73 177 4.0 9.0 0.00 0.00 0.00 88 1009.3
20240228050203 73 140 4.0 7.0 0.00 0.00 0.00 88 1009.1
20240228045702 73 136 5.0 10.0 0.00 0.00 0.00 88 1009.3
20240228045201 73 132 4.0 8.0 0.00 0.00 0.00 88 1009.4
20240228044659 73 131 7.0 10.0 0.00 0.00 0.00 88 1009.2
20240228044159 73 126 5.0 6.0 0.00 0.00 0.00 88 1009.3
20240228043659 73 163 6.0 10.0 0.00 0.00 0.00 88 1009.2
20240228043158 73 130 6.0 9.0 0.00 0.00 0.00 87 1009.2
20240228042657 74 156 4.0 8.0 0.00 0.00 0.00 87 1009.1
20240228042155 74 148 8.0 11.0 0.00 0.00 0.00 87 1009.0
20240228041653 74 155 6.0 13.0 0.00 0.00 0.00 86 1008.9
20240228041152 74 127 7.0 12.0 0.00 0.00 0.00 86 1008.8
20240228040651 74 179 8.0 12.0 0.00 0.00 0.00 86 1008.9
20240228040149 74 137 9.0 11.0 0.00 0.00 0.00 85 1008.8
20240228035648 74 141 6.0 10.0 0.00 0.00 0.00 85 1008.7
20240228035147 74 160 7.0 11.0 0.00 0.00 0.00 85 1008.7
20240228034646 75 147 10.0 12.0 0.00 0.00 0.00 84 1008.5
20240228034144 75 163 4.0 7.0 0.00 0.00 0.00 84 1008.7
20240228033643 75 142 6.0 7.0 0.00 0.00 0.00 83 1008.9
20240228033143 75 141 3.0 10.0 0.00 0.00 0.00 82 1008.8
20240228032642 75 162 5.0 6.0 0.00 0.00 0.00 83 1008.6
20240228032141 75 176 4.0 14.0 0.00 0.00 0.00 82 1008.8
20240228031639 75 146 4.0 8.0 0.00 0.00 0.00 81 1008.4
20240228031137 75 179 6.0 9.0 0.00 0.00 0.00 81 1008.4
20240228030636 76 149 9.0 12.0 0.00 0.00 0.00 80 1008.2
20240228030135 76 152 6.0 12.0 0.00 0.00 0.00 80 1008.0
20240228025634 76 158 5.0 13.0 0.00 0.00 0.00 80 1007.8
20240228025134 76 151 6.0 12.0 0.00 0.00 0.00 79 1007.6
20240228024633 76 156 7.0 14.0 0.00 0.00 0.00 79 1007.4
20240228024132 77 141 10.0 14.0 0.00 0.00 0.00 78 1007.5
20240228023631 77 142 8.0 13.0 0.00 0.00 0.00 78 1007.6
20240228023131 77 121 8.0 10.0 0.00 0.00 0.00 77 1007.7
20240228022629 77 142 5.0 10.0 0.00 0.00 0.00 77 1007.6
20240228022128 77 142 6.0 11.0 0.00 0.00 0.00 77 1007.5
20240228021626 77 129 5.0 10.0 0.00 0.00 0.00 77 1007.4
20240228021126 78 142 4.0 10.0 0.00 0.00 0.00 77 1007.5
20240228020624 78 135 4.0 11.0 0.00 0.00 0.00 76 1007.4
20240228020123 78 146 6.0 8.0 0.00 0.00 0.00 76 1007.4
20240228015621 78 130 6.0 10.0 0.00 0.00 0.00 76 1007.4
20240228015120 78 150 6.0 11.0 0.00 0.00 0.00 75 1007.3
20240228014619 79 135 8.0 10.0 0.00 0.00 0.00 75 1007.2
20240228014117 79 123 7.0 14.0 0.00 0.00 0.00 75 1007.3
20240228013616 79 117 8.0 11.0 0.00 0.00 0.00 74 1006.9
20240228013115 79 128 7.0 11.0 0.00 0.00 0.00 73 1007.1
20240228012613 80 139 6.0 11.0 0.00 0.00 0.00 73 1007.1
20240228012112 80 136 9.0 14.0 0.00 0.00 0.00 72 1006.9
20240228011612 80 138 5.0 13.0 0.00 0.00 0.00 72 1006.8
20240228011110 80 114 9.0 12.0 0.00 0.00 0.00 71 1006.6
20240228010609 81 145 11.0 14.0 0.00 0.00 0.00 70 1006.7
20240228010108 81 133 6.0 12.0 0.00 0.00 0.00 69 1006.5
20240228005606 81 117 9.0 11.0 0.00 0.00 0.00 69 1006.8
20240228005104 82 155 3.0 6.0 0.00 0.00 0.00 68 1006.7
20240228004603 82 162 6.0 10.0 0.00 0.00 0.00 68 1006.9
20240228004102 82 127 7.0 10.0 0.00 0.00 0.00 67 1006.7
20240228003601 83 146 8.0 9.0 0.00 0.00 0.00 66 1006.6
20240228003059 83 142 11.0 15.0 0.00 0.00 0.00 66 1006.5
20240228002558 84 150 9.0 15.0 0.00 0.00 0.00 65 1006.6
20240228002057 84 125 8.0 11.0 0.00 0.00 0.00 65 1006.3
20240228001556 84 144 4.0 11.0 0.00 0.00 0.00 64 1006.4
20240228001055 84 136 8.0 10.0 0.00 0.00 0.00 64 1006.3
20240228000553 85 140 9.0 13.0 0.00 0.00 0.00 63 1006.4
20240228000051 85 159 5.0 11.0 0.00 0.00 0.00 62 1006.3
20240227235550 86 148 6.0 12.0 0.00 0.00 0.00 61 1006.2
20240227235049 87 148 8.0 9.0 0.00 0.00 0.00 58 1006.1
20240227234547 87 182 4.0 10.0 0.00 0.00 0.00 57 1005.9
20240227234045 87 125 6.0 14.0 0.00 0.00 0.00 56 1005.9
20240227233545 88 93 5.0 8.0 0.00 0.00 0.00 56 1005.9
20240227233043 88 163 4.0 8.0 0.00 0.00 0.00 56 1006.0
20240227232543 88 135 5.0 10.0 0.00 0.00 0.00 55 1005.9
20240227232041 89 104 4.0 8.0 0.00 0.00 0.00 55 1005.8
20240227231540 89 133 7.0 13.0 0.00 0.00 0.00 55 1005.7
20240227231040 90 128 7.0 13.0 0.00 0.00 0.00 54 1005.9
20240227230539 91 141 5.0 9.0 0.00 0.00 0.00 53 1005.7
20240227230039 91 146 5.0 10.0 0.00 0.00 0.00 51 1005.7
20240227225538 91 168 8.0 11.0 0.00 0.00 0.00 50 1005.5
20240227225038 92 126 5.0 11.0 0.00 0.00 0.00 50 1005.3
20240227224536 92 137 6.0 13.0 0.00 0.00 0.00 50 1005.2
20240227224034 92 147 7.0 12.0 0.00 0.00 0.00 50 1005.4
20240227223533 92 123 4.0 13.0 0.00 0.00 0.00 50 1005.4
20240227223032 92 150 5.0 8.0 0.00 0.00 0.00 49 1005.3
20240227222531 93 143 9.0 13.0 0.00 0.00 0.00 48 1004.9
20240227222029 92 114 8.0 13.0 0.00 0.00 0.00 49 1005.3
20240227221529 93 168 3.0 10.0 0.00 0.00 0.00 48 1005.2
20240227221027 92 123 7.0 9.0 0.00 0.00 0.00 46 1005.1
20240227220523 93 176 5.0 11.0 0.00 0.00 0.00 47 1005.3
20240227220023 93 102 7.0 10.0 0.00 0.00 0.00 45 1005.2
20240227215522 93 145 8.0 11.0 0.00 0.00 0.00 46 1005.1
20240227215020 93 175 4.0 13.0 0.00 0.00 0.00 47 1005.2
20240227214519 93 174 6.0 9.0 0.00 0.00 0.00 47 1005.0
20240227214019 93 156 4.0 12.0 0.00 0.00 0.00 47 1005.3
20240227213518 93 144 6.0 10.0 0.00 0.00 0.00 46 1005.4
20240227213016 93 175 4.0 9.0 0.00 0.00 0.00 47 1005.6
20240227212516 92 156 5.0 10.0 0.00 0.00 0.00 47 1005.8
20240227212016 92 160 5.0 11.0 0.00 0.00 0.00 48 1005.7
20240227211514 92 169 6.0 9.0 0.00 0.00 0.00 47 1005.7
20240227211012 92 208 3.0 7.0 0.00 0.00 0.00 49 1005.8
20240227210511 92 213 2.0 8.0 0.00 0.00 0.00 48 1005.8
20240227210011 92 139 9.0 14.0 0.00 0.00 0.00 47 1005.8
20240227205510 92 156 5.0 9.0 0.00 0.00 0.00 47 1006.1
20240227205008 92 161 6.0 10.0 0.00 0.00 0.00 47 1006.0
20240227204506 93 180 4.0 7.0 0.00 0.00 0.00 48 1006.0
20240227204004 93 202 5.0 6.0 0.00 0.00 0.00 47 1006.0
20240227203502 92 179 3.0 9.0 0.00 0.00 0.00 49 1006.1
20240227203001 93 168 6.0 11.0 0.00 0.00 0.00 45 1006.1
20240227202500 92 212 2.0 6.0 0.00 0.00 0.00 50 1006.1
20240227201959 92 166 5.0 7.0 0.00 0.00 0.00 48 1006.2
20240227201459 92 167 5.0 8.0 0.00 0.00 0.00 47 1006.6
20240227200958 92 189 4.0 9.0 0.00 0.00 0.00 48 1006.3
20240227200454 92 171 4.0 11.0 0.00 0.00 0.00 47 1006.6
20240227195953 93 225 7.0 10.0 0.00 0.00 0.00 45 1006.6
20240227195451 93 239 5.0 9.0 0.00 0.00 0.00 44 1006.8
20240227194950 91 195 4.0 7.0 0.00 0.00 0.00 47 1006.9
20240227194448 91 205 7.0 9.0 0.00 0.00 0.00 48 1006.7
20240227193947 91 174 6.0 14.0 0.00 0.00 0.00 48 1006.9
20240227193445 91 210 8.0 11.0 0.00 0.00 0.00 45 1007.0
20240227192945 91 183 4.0 10.0 0.00 0.00 0.00 49 1007.0
20240227192444 90 177 6.0 9.0 0.00 0.00 0.00 49 1007.1
20240227191944 90 215 6.0 13.0 0.00 0.00 0.00 48 1007.2
20240227191442 89 159 4.0 10.0 0.00 0.00 0.00 50 1007.3
20240227190942 89 144 9.0 13.0 0.00 0.00 0.00 49 1007.3
20240227190440 89 170 6.0 11.0 0.00 0.00 0.00 50 1007.4
20240227185938 89 162 7.0 12.0 0.00 0.00 0.00 51 1007.5
20240227185437 88 172 8.0 16.0 0.00 0.00 0.00 53 1007.6
20240227184936 88 181 4.0 15.0 0.00 0.00 0.00 51 1007.6
20240227184436 87 168 9.0 17.0 0.00 0.00 0.00 53 1007.6
20240227183934 87 214 7.0 19.0 0.00 0.00 0.00 53 1007.8
20240227183433 88 161 12.0 14.0 0.00 0.00 0.00 52 1007.8
20240227182932 87 173 5.0 13.0 0.00 0.00 0.00 55 1007.9
20240227182430 87 134 10.0 14.0 0.00 0.00 0.00 54 1008.0
20240227181929 86 212 5.0 17.0 0.00 0.00 0.00 56 1008.2
20240227181427 86 159 8.0 17.0 0.00 0.00 0.00 55 1008.2
20240227180925 86 187 7.0 13.0 0.00 0.00 0.00 56 1008.5
20240227180424 85 144 12.0 19.0 0.00 0.00 0.00 56 1008.4
20240227175923 86 146 16.0 18.0 0.00 0.00 0.00 56 1008.4
20240227175423 85 147 13.0 15.0 0.00 0.00 0.00 57 1008.7
20240227174921 84 167 9.0 18.0 0.00 0.00 0.00 60 1008.8
20240227174421 84 147 14.0 21.0 0.00 0.00 0.00 60 1008.9
20240227173919 84 144 9.0 16.0 0.00 0.00 0.00 59 1009.0
20240227173418 84 166 10.0 17.0 0.00 0.00 0.00 61 1009.2
20240227172918 84 165 11.0 15.0 0.00 0.00 0.00 61 1009.3
20240227172418 83 145 6.0 17.0 0.00 0.00 0.00 64 1009.2
20240227171916 83 205 4.0 16.0 0.00 0.00 0.00 63 1009.0
20240227171415 82 219 8.0 19.0 0.00 0.00 0.00 64 1009.1
20240227170913 82 175 9.0 18.0 0.00 0.00 0.00 64 1009.2
20240227170412 83 191 9.0 12.0 0.00 0.00 0.00 65 1009.2
20240227165910 82 164 13.0 19.0 0.00 0.00 0.00 65 1009.6
20240227165410 81 194 7.0 12.0 0.00 0.00 0.00 67 1009.4
20240227164909 81 224 6.0 17.0 0.00 0.00 0.00 68 1009.5
20240227164408 81 170 8.0 14.0 0.00 0.00 0.00 68 1009.5
20240227163906 80 129 10.0 16.0 0.00 0.00 0.00 70 1009.7
20240227163404 79 197 7.0 16.0 0.00 0.00 0.00 71 1009.6
20240227162902 79 170 13.0 19.0 0.00 0.00 0.00 71 1010.0
20240227162401 79 171 13.0 17.0 0.00 0.00 0.00 71 1009.7
20240227161900 79 146 9.0 14.0 0.00 0.00 0.00 73 1010.0
20240227161359 78 188 6.0 19.0 0.00 0.00 0.00 74 1009.9
20240227160858 78 182 9.0 10.0 0.00 0.00 0.00 75 1010.0
20240227160356 77 162 10.0 14.0 0.00 0.00 0.00 75 1010.2
20240227155855 77 192 8.0 15.0 0.00 0.00 0.00 76 1010.2
20240227155353 77 195 5.0 12.0 0.00 0.00 0.00 76 1010.1
20240227154851 77 158 10.0 17.0 0.00 0.00 0.00 77 1010.1
20240227154350 77 173 15.0 17.0 0.00 0.00 0.00 77 1010.4
20240227153850 76 224 7.0 15.0 0.00 0.00 0.00 78 1010.2
20240227153348 76 170 7.0 17.0 0.00 0.00 0.00 79 1010.2
20240227152848 75 160 8.0 17.0 0.00 0.00 0.00 80 1010.1
20240227152347 75 171 8.0 12.0 0.00 0.00 0.00 80 1010.1
20240227151845 75 166 11.0 18.0 0.00 0.00 0.00 81 1010.0
20240227151344 75 163 5.0 13.0 0.00 0.00 0.00 82 1009.9
20240227150843 75 180 3.0 10.0 0.00 0.00 0.00 82 1009.8
20240227150343 74 176 11.0 15.0 0.00 0.00 0.00 83 1009.8
20240227145842 73 164 12.0 18.0 0.00 0.00 0.00 84 1010.0
20240227145341 73 163 11.0 16.0 0.00 0.00 0.00 84 1009.9
20240227144839 73 193 5.0 15.0 0.00 0.00 0.00 85 1009.7
20240227144336 72 182 9.0 14.0 0.00 0.00 0.00 86 1009.7
20240227143835 72 168 9.0 18.0 0.00 0.00 0.00 86 1009.5
20240227143335 72 159 8.0 17.0 0.00 0.00 0.00 87 1009.7
20240227142833 72 197 8.0 12.0 0.00 0.00 0.00 87 1009.5
20240227142332 72 205 3.0 12.0 0.00 0.00 0.00 88 1009.6
20240227141828 71 165 10.0 17.0 0.00 0.00 0.00 88 1009.4
20240227141326 71 159 8.0 19.0 0.00 0.00 0.00 88 1009.4
20240227140825 71 161 9.0 12.0 0.00 0.00 0.00 89 1009.3
20240227140324 71 139 10.0 13.0 0.00 0.00 0.00 89 1009.4
20240227135824 71 165 10.0 14.0 0.00 0.00 0.00 90 1009.1
20240227135322 71 176 7.0 12.0 0.00 0.00 0.00 90 1009.1
20240227134821 71 150 8.0 13.0 0.00 0.00 0.00 90 1009.1
20240227134320 71 172 4.0 13.0 0.00 0.00 0.00 90 1009.2
20240227133819 71 152 11.0 16.0 0.00 0.00 0.00 90 1009.3
20240227133319 71 169 9.0 17.0 0.00 0.00 0.00 90 1009.1
20240227132817 70 160 9.0 13.0 0.00 0.00 0.00 90 1008.9
20240227132315 70 154 8.0 18.0 0.00 0.00 0.00 90 1009.0
20240227131814 70 138 16.0 16.0 0.00 0.00 0.00 90 1008.8
20240227131313 70 179 7.0 14.0 0.00 0.00 0.00 90 1009.1
20240227130813 70 183 8.0 11.0 0.00 0.00 0.00 91 1008.9
20240227130312 70 161 9.0 14.0 0.00 0.00 0.00 91 1008.9
20240227125810 70 180 12.0 17.0 0.00 0.00 0.00 90 1008.9
20240227125310 71 150 10.0 20.0 0.00 0.00 0.00 90 1008.8
20240227124809 71 168 10.0 21.0 0.00 0.00 0.00 90 1008.7
20240227124306 71 167 7.0 17.0 0.00 0.00 0.00 90 1008.8
20240227123805 71 203 6.0 17.0 0.00 0.00 0.00 90 1008.6
20240227123304 71 160 8.0 15.0 0.00 0.00 0.00 90 1008.5
20240227122803 71 181 8.0 20.0 0.00 0.00 0.00 90 1008.7
20240227122301 71 146 11.0 16.0 0.00 0.00 0.00 90 1008.5
20240227121758 71 164 9.0 20.0 0.00 0.00 0.00 90 1008.7
20240227121256 71 157 10.0 17.0 0.00 0.00 0.00 90 1008.9
20240227120756 71 149 8.0 15.0 0.00 0.00 0.00 90 1008.7
20240227120256 71 137 9.0 11.0 0.00 0.00 0.00 90 1009.0
20240227115754 71 142 11.0 13.0 0.00 0.00 0.00 90 1009.1
20240227115253 71 155 9.0 14.0 0.00 0.00 0.00 90 1009.1
20240227114749 70 146 9.0 15.0 0.00 0.00 0.00 90 1008.9
20240227114248 70 155 3.0 15.0 0.00 0.00 0.00 90 1009.0
20240227113747 70 141 8.0 10.0 0.00 0.00 0.00 90 1008.9
20240227113245 70 193 3.0 11.0 0.00 0.00 0.00 90 1008.8
20240227112744 70 122 8.0 13.0 0.00 0.00 0.00 90 1008.7
20240227112244 70 142 5.0 10.0 0.00 0.00 0.00 90 1008.6
20240227111742 71 156 9.0 13.0 0.00 0.00 0.00 90 1008.4
20240227111241 71 151 9.0 12.0 0.00 0.00 0.00 89 1008.7
20240227110739 71 147 11.0 17.0 0.00 0.00 0.00 89 1008.9
20240227110239 71 131 9.0 14.0 0.00 0.00 0.00 89 1009.0
20240227105738 71 139 7.0 10.0 0.00 0.00 0.00 89 1008.9
20240227105237 71 152 5.0 10.0 0.00 0.00 0.00 89 1009.1
20240227104736 71 160 7.0 11.0 0.00 0.00 0.00 89 1008.8
20240227104234 71 162 8.0 12.0 0.00 0.00 0.00 89 1009.0
20240227103734 71 141 6.0 11.0 0.00 0.00 0.00 89 1009.0
20240227103233 71 157 8.0 17.0 0.00 0.00 0.00 89 1009.1
20240227102731 71 165 9.0 13.0 0.00 0.00 0.00 89 1009.0
20240227102231 71 203 6.0 14.0 0.00 0.00 0.00 89 1009.1
20240227101730 71 164 6.0 12.0 0.00 0.00 0.00 89 1008.8
20240227101229 71 133 13.0 17.0 0.00 0.00 0.00 88 1009.1
20240227100728 71 179 7.0 15.0 0.00 0.00 0.00 88 1008.9
20240227100227 71 150 9.0 13.0 0.00 0.00 0.00 88 1009.2
20240227095725 71 140 9.0 12.0 0.00 0.00 0.00 88 1009.2
20240227095224 71 146 6.0 11.0 0.00 0.00 0.00 88 1009.2
20240227094724 71 189 4.0 13.0 0.00 0.00 0.00 88 1009.3
20240227094222 71 176 5.0 17.0 0.00 0.00 0.00 88 1009.4
20240227093721 71 144 12.0 13.0 0.00 0.00 0.00 88 1009.3
20240227093220 71 172 4.0 13.0 0.00 0.00 0.00 88 1009.4
20240227092720 71 146 9.0 12.0 0.00 0.00 0.00 88 1009.5
20240227092219 71 146 9.0 10.0 0.00 0.00 0.00 88 1009.5
20240227091717 71 129 3.0 13.0 0.00 0.00 0.00 88 1009.7
20240227091216 71 179 5.0 11.0 0.00 0.00 0.00 88 1009.6
20240227090716 71 159 6.0 13.0 0.00 0.00 0.00 88 1009.5
20240227090215 71 132 11.0 12.0 0.00 0.00 0.00 88 1009.5
20240227085715 71 156 10.0 13.0 0.00 0.00 0.00 88 1009.7
20240227085214 71 156 6.0 14.0 0.00 0.00 0.00 88 1009.9
20240227084713 71 136 7.0 15.0 0.00 0.00 0.00 88 1010.0
20240227084211 71 170 9.0 11.0 0.00 0.00 0.00 88 1010.1
20240227083710 72 174 4.0 14.0 0.00 0.00 0.00 87 1010.1
20240227083209 71 135 9.0 14.0 0.00 0.00 0.00 87 1010.3
20240227082709 71 152 5.0 10.0 0.00 0.00 0.00 87 1010.2
20240227082208 71 194 2.0 12.0 0.00 0.00 0.00 87 1010.3
20240227081707 71 127 10.0 15.0 0.00 0.00 0.00 87 1010.5
20240227081206 71 142 10.0 13.0 0.00 0.00 0.00 87 1010.4
20240227080706 71 132 15.0 16.0 0.00 0.00 0.00 87 1010.3
20240227080204 71 156 6.0 17.0 0.00 0.00 0.00 87 1010.4
20240227075704 71 173 5.0 11.0 0.00 0.00 0.00 88 1010.2
20240227075202 71 127 8.0 11.0 0.00 0.00 0.00 88 1010.3
20240227074700 71 184 5.0 14.0 0.00 0.00 0.00 88 1010.4
20240227074200 71 163 6.0 15.0 0.00 0.00 0.00 88 1010.4
20240227073658 71 134 9.0 13.0 0.00 0.00 0.00 88 1010.4
20240227073158 71 146 8.0 13.0 0.00 0.00 0.00 87 1010.5
20240227072656 71 154 8.0 17.0 0.00 0.00 0.00 87 1010.6
20240227072155 72 129 21.0 21.0 0.00 0.00 0.00 87 1010.5
20240227071654 72 156 7.0 14.0 0.00 0.00 0.00 87 1010.6
20240227071153 71 172 9.0 18.0 0.00 0.00 0.00 87 1010.7
20240227070652 71 157 10.0 16.0 0.00 0.00 0.00 87 1010.6
20240227070152 72 163 9.0 18.0 0.00 0.00 0.00 87 1010.7
20240227065650 72 174 8.0 17.0 0.00 0.00 0.00 87 1010.8
20240227065150 72 154 8.0 15.0 0.00 0.00 0.00 87 1010.9
20240227064649 72 154 13.0 14.0 0.00 0.00 0.00 87 1010.9
20240227064149 72 150 8.0 16.0 0.00 0.00 0.00 87 1011.1
20240227063649 72 160 8.0 11.0 0.00 0.00 0.00 87 1011.0
20240227063147 72 146 9.0 13.0 0.00 0.00 0.00 87 1011.1
20240227062646 72 152 9.0 17.0 0.00 0.00 0.00 87 1011.0
20240227062145 72 155 10.0 17.0 0.00 0.00 0.00 87 1011.2
20240227061645 72 166 10.0 15.0 0.00 0.00 0.00 88 1011.1